Location: Chuathbaluk
(61.5726°N, 159.2454°W)
Time: 17:42:35
(UTC+00:00)

ITAMSAT 1 - Pass Details

Date: 17 January 2021
Orbit: 784 x 796 km, 98.9° (Epoch: 05 March)

Event Time Altitude Azimuth Distance (km) Brightness Sun altitude
Rises 18:27:00 0° 19° (NNE) 3,292 10.8 -7.0°
Reaches altitude 10° 18:29:21 10° 16° (NNE) 2,359 10.0 -6.7°
Maximum altitude 18:34:27 59° 298° (WNW) 908 7.7 -6.2°
Drops below altitude 10° 18:39:32 10° 220° (SW) 2,347 10.1 -5.7°
Sets 18:41:52 0° 217° (SW) 3,273 10.8 -5.5°
